DB0RES-5 Weather Reports


Display with metric or nautical units.
time (UTC)temp
F
wind
direction
speed
MPH
gust
MPH
rain 1hr
in
rain 24hr
in
rain mn
in
humidity
%
barometer
mb
20260502130551 75 227 6.0 11.0 0.00 0.00 0.00 52 1018.4
20260502123543 75 204 5.0 8.0 0.00 0.00 0.00 52 1018.7
20260502122540 75 263 5.0 9.0 0.00 0.00 0.00 52 1018.9
20260502121538 75 194 3.0 6.0 0.00 0.00 0.00 52 1018.9
20260502120535 75 195 5.0 11.0 0.00 0.00 0.00 53 1018.9
20260502115533 74 211 3.0 7.0 0.00 0.00 0.00 52 1019.0
20260502114530 74 251 3.0 6.0 0.00 0.00 0.00 53 1019.2
20260502113527 73 226 4.0 7.0 0.00 0.00 0.00 53 1019.4
20260502112525 73 230 3.0 9.0 0.00 0.00 0.00 52 1019.5
20260502111522 72 256 6.0 9.0 0.00 0.00 0.00 54 1019.7
20260502110520 72 218 4.0 9.0 0.00 0.00 0.00 54 1019.7
20260502105517 71 235 5.0 11.0 0.00 0.00 0.00 55 1019.8
20260502104515 72 153 6.0 13.0 0.00 0.00 0.00 54 1019.9
20260502103612 71 214 4.0 11.0 0.00 0.00 0.00 54 1019.9
20260502102610 71 215 3.0 7.0 0.00 0.00 0.00 52 1019.9
20260502101607 70 193 1.0 4.0 0.00 0.00 0.00 52 1020.1
20260502100604 70 250 4.0 7.0 0.00 0.00 0.00 53 1020.1
20260502090549 68 256 3.0 7.0 0.00 0.00 0.00 50 1020.3
20260502071520 61 171 4.0 9.0 0.00 0.00 0.00 57 1020.5
20260502070518 60 181 5.0 7.0 0.00 0.00 0.00 58 1020.6
20260502065515 60 168 4.0 7.0 0.00 0.00 0.00 58 1020.5
20260502064613 60 175 5.0 9.0 0.00 0.00 0.00 58 1020.5
20260502063610 60 174 6.0 11.0 0.00 0.00 0.00 58 1020.5
20260502062608 60 189 4.0 7.0 0.00 0.00 0.00 59 1020.5
20260502061605 59 171 5.0 8.0 0.00 0.00 0.00 60 1020.5
20260502060603 58 150 3.0 7.0 0.00 0.00 0.00 61 1020.6
20260502055600 58 146 6.0 11.0 0.00 0.00 0.00 60 1020.4
20260502054557 58 103 5.0 11.0 0.00 0.00 0.00 61 1020.5
20260502053555 57 175 4.0 7.0 0.00 0.00 0.00 61 1020.5
20260502052552 57 154 4.0 8.0 0.00 0.00 0.00 61 1020.4
20260502051549 57 152 4.0 8.0 0.00 0.00 0.00 61 1020.4
20260502050547 56 164 4.0 7.0 0.00 0.00 0.00 61 1020.4
20260502045544 56 151 4.0 7.0 0.00 0.00 0.00 61 1020.5
20260502044541 56 148 3.0 6.0 0.00 0.00 0.00 61 1020.6
20260502043539 56 189 3.0 6.0 0.00 0.00 0.00 61 1020.5
20260502042536 56 165 4.0 8.0 0.00 0.00 0.00 61 1020.6
20260502041534 56 146 4.0 8.0 0.00 0.00 0.00 61 1020.6
20260502040531 56 117 3.0 7.0 0.00 0.00 0.00 61 1020.6
20260502035529 56 143 3.0 4.0 0.00 0.00 0.00 60 1020.7
20260502034526 56 171 3.0 6.0 0.00 0.00 0.00 60 1020.8
20260502033524 56 145 3.0 6.0 0.00 0.00 0.00 60 1021.0
20260502032521 56 156 4.0 7.0 0.00 0.00 0.00 60 1020.9
20260502031518 56 161 4.0 7.0 0.00 0.00 0.00 60 1021.0
20260502030516 57 147 4.0 7.0 0.00 0.00 0.00 59 1021.2
20260502025613 57 157 4.0 7.0 0.00 0.00 0.00 59 1021.1
20260502024611 57 143 4.0 7.0 0.00 0.00 0.00 58 1021.1
20260502023608 57 166 4.0 7.0 0.00 0.00 0.00 58 1021.2
20260502022606 57 162 4.0 6.0 0.00 0.00 0.00 58 1021.3
20260502021603 57 135 4.0 7.0 0.00 0.00 0.00 58 1021.3
20260502020601 58 177 4.0 6.0 0.00 0.00 0.00 58 1021.4
20260502015558 58 155 4.0 7.0 0.00 0.00 0.00 58 1021.5
20260502014555 58 149 3.0 6.0 0.00 0.00 0.00 58 1021.5
20260502013553 58 125 3.0 6.0 0.00 0.00 0.00 58 1021.5
20260502012550 59 139 4.0 6.0 0.00 0.00 0.00 56 1021.7
20260502011548 59 127 3.0 6.0 0.00 0.00 0.00 56 1021.8
20260502010545 58 135 2.0 4.0 0.00 0.00 0.00 57 1021.9
20260502005543 59 157 2.0 4.0 0.00 0.00 0.00 57 1022.1
20260502004540 59 144 2.0 4.0 0.00 0.00 0.00 56 1022.1
20260502003537 59 161 3.0 4.0 0.00 0.00 0.00 55 1022.2
20260502002535 59 139 3.0 4.0 0.00 0.00 0.00 55 1022.3
20260502001532 59 144 3.0 4.0 0.00 0.00 0.00 54 1022.4
20260502000530 60 158 3.0 4.0 0.00 0.00 0.00 55 1022.4
20260501235527 60 172 3.0 4.0 0.00 0.00 0.00 55 1022.5
20260501234525 60 156 3.0 4.0 0.00 0.00 0.00 55 1022.6
20260501233522 60 158 3.0 6.0 0.00 0.00 0.00 54 1022.7
20260501232519 60 167 2.0 6.0 0.00 0.00 0.00 53 1022.7
20260501231517 60 180 3.0 4.0 0.00 0.00 0.00 54 1022.6
20260501230615 61 211 3.0 4.0 0.00 0.00 0.00 55 1022.7
20260501225612 61 170 2.0 4.0 0.00 0.00 0.00 52 1022.7
20260501224609 61 189 2.0 2.0 0.00 0.00 0.00 51 1022.7
20260501223607 62 144 2.0 4.0 0.00 0.00 0.00 50 1022.8
20260501222604 62 140 2.0 4.0 0.00 0.00 0.00 50 1022.9
20260501221602 63 147 3.0 4.0 0.00 0.00 0.00 48 1022.9
20260501220559 63 149 2.0 4.0 0.00 0.00 0.00 48 1022.9
20260501215556 63 155 3.0 4.0 0.00 0.00 0.00 47 1022.9
20260501214554 64 164 3.0 6.0 0.00 0.00 0.00 46 1022.9
20260501213551 64 131 4.0 6.0 0.00 0.00 0.00 45 1023.0
20260501212549 65 120 4.0 6.0 0.00 0.00 0.00 44 1022.8
20260501211546 65 146 4.0 6.0 0.00 0.00 0.00 43 1022.9
20260501210544 66 132 4.0 6.0 0.00 0.00 0.00 43 1023.0
20260501205541 66 142 4.0 8.0 0.00 0.00 0.00 42 1023.0
20260501204539 66 127 4.0 7.0 0.00 0.00 0.00 42 1023.1
20260501203536 67 130 4.0 6.0 0.00 0.00 0.00 41 1023.1
20260501202533 67 136 4.0 6.0 0.00 0.00 0.00 41 1023.1
20260501201531 67 131 4.0 6.0 0.00 0.00 0.00 40 1023.2
20260501200528 67 135 4.0 6.0 0.00 0.00 0.00 40 1023.2
20260501195526 68 127 3.0 6.0 0.00 0.00 0.00 39 1023.1
20260501194523 68 133 4.0 7.0 0.00 0.00 0.00 39 1023.1
20260501193521 68 124 4.0 6.0 0.00 0.00 0.00 39 1023.1
20260501192518 69 124 3.0 6.0 0.00 0.00 0.00 38 1023.0
20260501191515 69 136 4.0 9.0 0.00 0.00 0.00 37 1023.0
20260501190613 70 130 4.0 6.0 0.00 0.00 0.00 37 1023.0
20260501185610 70 141 3.0 4.0 0.00 0.00 0.00 38 1023.0
20260501184608 70 132 3.0 6.0 0.00 0.00 0.00 37 1023.1
20260501183605 71 137 3.0 6.0 0.00 0.00 0.00 36 1023.1
20260501182603 71 141 4.0 7.0 0.00 0.00 0.00 36 1023.1
20260501181600 71 125 4.0 7.0 0.00 0.00 0.00 36 1023.1
20260501180558 72 133 5.0 7.0 0.00 0.00 0.00 36 1023.0
20260501175555 72 144 4.0 7.0 0.00 0.00 0.00 35 1023.0
20260501174552 72 155 4.0 7.0 0.00 0.00 0.00 35 1023.0
20260501173549 73 145 4.0 7.0 0.00 0.00 0.00 34 1023.0
20260501172546 73 142 4.0 8.0 0.00 0.00 0.00 34 1023.0
20260501171544 73 138 5.0 9.0 0.00 0.00 0.00 33 1023.1
20260501170541 73 132 6.0 11.0 0.00 0.00 0.00 32 1023.0
20260501165539 73 147 6.0 11.0 0.00 0.00 0.00 32 1023.1
20260501164536 73 154 6.0 9.0 0.00 0.00 0.00 32 1023.1
20260501163533 74 134 5.0 9.0 0.00 0.00 0.00 32 1023.2
20260501162531 74 148 6.0 11.0 0.00 0.00 0.00 31 1023.4
20260501161528 73 136 6.0 9.0 0.00 0.00 0.00 30 1023.4
20260501160526 74 158 5.0 9.0 0.00 0.00 0.00 31 1023.4
20260501155523 74 143 5.0 8.0 0.00 0.00 0.00 30 1023.7
20260501154521 74 150 6.0 11.0 0.00 0.00 0.00 30 1023.7
20260501153518 74 142 6.0 11.0 0.00 0.00 0.00 30 1023.7
20260501152516 74 141 7.0 11.0 0.00 0.00 0.00 30 1023.8
20260501151613 74 151 7.0 11.0 0.00 0.00 0.00 30 1024.0
20260501150611 73 143 6.0 11.0 0.00 0.00 0.00 30 1024.0